Tracking 19905 objects as of 17-Oct-2019
HD Live streaming from Space Station
objects crossing your sky now

BREEZE-M DEB (TANK)

Track BREEZE-M DEB (TANK) now!
10-day predictions


NORAD ID: 28395
Int'l Code: 2004-031C
Perigee: 297.7 km
Apogee: 15,291.7 km
Inclination: 49.4 °
Period: 279.7 minutes
Semi major axis: 14165 km
RCS: 6.5834 m2 (large)
Launch date: August 4, 2004
Source: Commonwealth of Independent States (former USSR) (CIS)
Launch site: TYURATAM MISSILE AND SPACE COMPLEX (TTMTR)

Note: This is SATELLITE DEBRIS
aabbcc
Your satellite tracking list
Your tracking list is empty




NASA's NSSDC Master Catalog

Two Line Element Set (TLE):
1 28395U 04031C   19289.99184142  .00001346  00000-0  20082-3 0  9991
2 28395  49.3845 194.5540 5292362 233.7442  65.1014  5.14928666277105
Source of the keplerian elements: AFSPC